Time,TemperatureF,DewpointF,PressureIn,WindDirection,WindDirectionDegrees,WindSpeedMPH,WindSpeedGustMPH,Humidity,HourlyPrecipIn,Conditions,Clouds,dailyrainin,SolarRadiationWatts/m^2,SoftwareType,DateUTC
2013-06-08 00:01:00,64.8,63.6,29.63,NW,313,0.0,3.0,96,0.00,,,0.00,0,HR-IXPWINDi_r2_v1.2.,2013-06-08 04:01:00,
2013-06-08 00:06:00,64.7,63.5,29.62,WNW,285,0.0,5.0,96,0.00,,,0.00,0,HR-IXPWINDi_r2_v1.2.,2013-06-08 04:06:00,
2013-06-08 00:11:00,64.7,63.5,29.62,NW,318,2.0,5.0,96,0.00,,,0.00,0,HR-IXPWINDi_r2_v1.2.,2013-06-08 04:11:00,
2013-06-08 00:16:00,64.5,63.3,29.62,NNW,339,1.0,6.0,96,0.00,,,0.00,0,HR-IXPWINDi_r2_v1.2.,2013-06-08 04:16:00,
2013-06-08 00:21:00,64.3,63.1,29.61,NNW,337,0.0,6.0,96,0.00,,,0.00,0,HR-IXPWINDi_r2_v1.2.,2013-06-08 04:21:00,
2013-06-08 00:27:00,64.5,63.3,29.61,NNW,339,1.0,5.0,96,0.00,,,0.00,0,HR-IXPWINDi_r2_v1.2.,2013-06-08 04:27:00,
2013-06-08 00:32:00,64.3,63.1,29.61,NNW,337,2.0,5.0,96,0.00,,,0.00,0,HR-IXPWINDi_r2_v1.2.,2013-06-08 04:32:00,
2013-06-08 00:37:00,64.2,63.0,29.61,NNW,329,1.0,3.0,96,0.00,,,0.00,0,HR-IXPWINDi_r2_v1.2.,2013-06-08 04:37:00,
2013-06-08 00:42:00,64.2,63.0,29.61,NNW,333,2.0,3.0,96,0.00,,,0.00,0,HR-IXPWINDi_r2_v1.2.,2013-06-08 04:42:00,
2013-06-08 00:47:00,64.3,63.1,29.61,NNW,332,1.0,3.0,96,0.00,,,0.00,0,HR-IXPWINDi_r2_v1.2.,2013-06-08 04:47:00,
2013-06-08 00:53:00,64.3,63.1,29.60,NW,313,0.0,3.0,96,0.00,,,0.00,0,HR-IXPWINDi_r2_v1.2.,2013-06-08 04:53:00,
2013-06-08 00:58:00,64.3,63.1,29.60,NNE,20,0.0,2.0,96,0.00,,,0.00,0,HR-IXPWINDi_r2_v1.2.,2013-06-08 04:58:00,
2013-06-08 01:03:00,64.2,63.0,29.60,North,0,2.0,3.0,96,0.00,,,0.00,0,HR-IXPWINDi_r2_v1.2.,2013-06-08 05:03:00,
2013-06-08 01:08:00,64.2,63.0,29.59,North,0,1.0,3.0,96,0.00,,,0.00,0,HR-IXPWINDi_r2_v1.2.,2013-06-08 05:08:00,
2013-06-08 01:14:00,64.2,63.0,29.59,North,0,0.0,3.0,96,0.00,,,0.00,0,HR-IXPWINDi_r2_v1.2.,2013-06-08 05:14:00,
2013-06-08 01:19:00,64.2,63.0,29.59,North,356,1.0,3.0,96,0.00,,,0.00,0,HR-IXPWINDi_r2_v1.2.,2013-06-08 05:19:00,
2013-06-08 01:24:00,64.2,63.0,29.58,North,354,0.0,3.0,96,0.00,,,0.00,0,HR-IXPWINDi_r2_v1.2.,2013-06-08 05:24:00,
2013-06-08 01:29:00,64.2,63.0,29.58,North,354,0.0,2.0,96,0.00,,,0.00,0,HR-IXPWINDi_r2_v1.2.,2013-06-08 05:29:00,
2013-06-08 01:34:00,64.2,63.0,29.58,North,353,2.0,3.0,96,0.00,,,0.00,0,HR-IXPWINDi_r2_v1.2.,2013-06-08 05:34:00,
2013-06-08 01:39:00,64.0,62.8,29.57,North,350,1.0,4.0,96,0.00,,,0.00,0,HR-IXPWINDi_r2_v1.2.,2013-06-08 05:39:00,
2013-06-08 01:44:00,64.0,62.8,29.57,North,349,2.0,4.0,96,0.00,,,0.00,0,HR-IXPWINDi_r2_v1.2.,2013-06-08 05:44:00,
2013-06-08 01:49:00,64.0,62.8,29.57,NNW,346,1.0,4.0,96,0.00,,,0.00,0,HR-IXPWINDi_r2_v1.2.,2013-06-08 05:49:00,
2013-06-08 01:54:00,63.9,62.7,29.57,NNW,337,2.0,3.0,96,0.00,,,0.00,0,HR-IXPWINDi_r2_v1.2.,2013-06-08 05:54:00,
2013-06-08 02:00:00,63.9,62.7,29.57,NNW,339,1.0,3.0,96,0.00,,,0.00,0,HR-IXPWINDi_r2_v1.2.,2013-06-08 06:00:00,
2013-06-08 02:05:00,63.9,62.7,29.56,NNW,339,1.0,3.0,96,0.00,,,0.00,0,HR-IXPWINDi_r2_v1.2.,2013-06-08 06:05:00,
2013-06-08 02:10:00,63.9,62.7,29.56,NNW,336,1.0,6.0,96,0.00,,,0.00,0,HR-IXPWINDi_r2_v1.2.,2013-06-08 06:10:00,
2013-06-08 02:15:00,63.9,62.7,29.56,NNW,333,1.0,6.0,96,0.00,,,0.00,0,HR-IXPWINDi_r2_v1.2.,2013-06-08 06:15:00,
2013-06-08 02:20:00,63.9,62.7,29.56,NNW,332,1.0,6.0,96,0.00,,,0.00,0,HR-IXPWINDi_r2_v1.2.,2013-06-08 06:20:00,
2013-06-08 02:25:00,63.7,62.5,29.56,NW,311,0.0,5.0,96,0.00,,,0.00,0,HR-IXPWINDi_r2_v1.2.,2013-06-08 06:25:00,
2013-06-08 02:30:00,63.7,62.5,29.56,NW,312,3.0,5.0,96,0.00,,,0.00,0,HR-IXPWINDi_r2_v1.2.,2013-06-08 06:30:00,
2013-06-08 02:36:00,63.9,62.7,29.57,NNW,336,0.0,4.0,96,0.00,,,0.00,0,HR-IXPWINDi_r2_v1.2.,2013-06-08 06:36:00,
2013-06-08 02:41:00,63.9,62.7,29.57,NNW,337,0.0,4.0,96,0.00,,,0.00,0,HR-IXPWINDi_r2_v1.2.,2013-06-08 06:41:00,
2013-06-08 02:46:00,63.9,62.7,29.57,NW,312,0.0,5.0,96,0.00,,,0.00,0,HR-IXPWINDi_r2_v1.2.,2013-06-08 06:46:00,
2013-06-08 02:52:00,64.0,62.8,29.57,NW,312,0.0,5.0,96,0.00,,,0.00,0,HR-IXPWINDi_r2_v1.2.,2013-06-08 06:52:00,
2013-06-08 02:57:00,64.0,62.8,29.57,NW,312,1.0,3.0,96,0.00,,,0.00,0,HR-IXPWINDi_r2_v1.2.,2013-06-08 06:57:00,
2013-06-08 03:02:00,63.9,62.7,29.57,NW,313,0.0,3.0,96,0.00,,,0.00,0,HR-IXPWINDi_r2_v1.2.,2013-06-08 07:02:00,
2013-06-08 03:07:00,63.9,62.7,29.56,NW,313,1.0,3.0,96,0.00,,,0.00,0,HR-IXPWINDi_r2_v1.2.,2013-06-08 07:07:00,
2013-06-08 03:12:00,63.9,62.7,29.56,NW,315,1.0,3.0,96,0.00,,,0.00,0,HR-IXPWINDi_r2_v1.2.,2013-06-08 07:12:00,
2013-06-08 03:17:00,63.9,62.7,29.56,NW,318,0.0,3.0,96,0.00,,,0.00,0,HR-IXPWINDi_r2_v1.2.,2013-06-08 07:17:00,
2013-06-08 03:22:00,63.7,62.5,29.56,NW,316,0.0,3.0,96,0.00,,,0.00,0,HR-IXPWINDi_r2_v1.2.,2013-06-08 07:22:00,
2013-06-08 03:27:00,63.9,62.7,29.56,NW,315,0.0,3.0,96,0.00,,,0.00,0,HR-IXPWINDi_r2_v1.2.,2013-06-08 07:27:00,
2013-06-08 03:32:00,63.9,62.7,29.56,NW,323,2.0,4.0,96,0.00,,,0.00,0,HR-IXPWINDi_r2_v1.2.,2013-06-08 07:32:00,
2013-06-08 03:38:00,63.9,62.7,29.56,NNW,328,1.0,4.0,96,0.00,,,0.00,0,HR-IXPWINDi_r2_v1.2.,2013-06-08 07:38:00,
2013-06-08 03:43:00,63.9,62.7,29.56,NNW,343,0.0,5.0,96,0.00,,,0.00,0,HR-IXPWINDi_r2_v1.2.,2013-06-08 07:43:00,
2013-06-08 03:48:00,63.9,62.7,29.56,NNW,343,0.0,5.0,96,0.00,,,0.00,0,HR-IXPWINDi_r2_v1.2.,2013-06-08 07:48:00,
2013-06-08 03:53:00,64.0,62.8,29.57,NNW,343,0.0,1.0,96,0.00,,,0.00,0,HR-IXPWINDi_r2_v1.2.,2013-06-08 07:53:00,
2013-06-08 03:58:00,64.0,62.8,29.57,NW,322,1.0,2.0,96,0.00,,,0.00,0,HR-IXPWINDi_r2_v1.2.,2013-06-08 07:58:00,
2013-06-08 04:03:00,64.2,63.0,29.57,NW,323,1.0,2.0,96,0.00,,,0.00,0,HR-IXPWINDi_r2_v1.2.,2013-06-08 08:03:00,
2013-06-08 04:08:00,64.0,62.8,29.57,North,359,1.0,3.0,96,0.00,,,0.00,0,HR-IXPWINDi_r2_v1.2.,2013-06-08 08:08:00,
2013-06-08 04:14:00,63.9,62.7,29.57,North,0,2.0,3.0,96,0.00,,,0.00,0,HR-IXPWINDi_r2_v1.2.,2013-06-08 08:14:00,
2013-06-08 04:19:00,63.9,62.7,29.57,NW,326,0.0,3.0,96,0.00,,,0.00,0,HR-IXPWINDi_r2_v1.2.,2013-06-08 08:19:00,
2013-06-08 04:24:00,63.9,62.7,29.58,WNW,298,1.0,3.0,96,0.00,,,0.00,0,HR-IXPWINDi_r2_v1.2.,2013-06-08 08:24:00,
2013-06-08 04:29:00,63.9,62.7,29.58,WNW,296,0.0,3.0,96,0.00,,,0.00,0,HR-IXPWINDi_r2_v1.2.,2013-06-08 08:29:00,
2013-06-08 04:34:00,63.9,62.7,29.58,SE,141,1.0,3.0,96,0.00,,,0.00,0,HR-IXPWINDi_r2_v1.2.,2013-06-08 08:34:00,
2013-06-08 04:39:00,63.9,62.7,29.59,SE,138,1.0,3.0,96,0.00,,,0.00,0,HR-IXPWINDi_r2_v1.2.,2013-06-08 08:39:00,
2013-06-08 04:44:00,63.9,62.7,29.59,SE,138,0.0,3.0,96,0.00,,,0.00,0,HR-IXPWINDi_r2_v1.2.,2013-06-08 08:44:00,
2013-06-08 04:50:00,63.9,62.7,29.59,SE,140,0.0,2.0,96,0.00,,,0.00,0,HR-IXPWINDi_r2_v1.2.,2013-06-08 08:50:00,
2013-06-08 04:55:00,63.9,62.7,29.59,SE,133,0.0,3.0,96,0.00,,,0.00,0,HR-IXPWINDi_r2_v1.2.,2013-06-08 08:55:00,
2013-06-08 05:00:00,63.9,62.7,29.59,South,178,0.0,3.0,96,0.00,,,0.00,0,HR-IXPWINDi_r2_v1.2.,2013-06-08 09:00:00,
2013-06-08 05:05:00,64.0,62.8,29.60,South,178,0.0,3.0,96,0.00,,,0.00,0,HR-IXPWINDi_r2_v1.2.,2013-06-08 09:05:00,
2013-06-08 05:10:00,64.0,62.8,29.60,South,179,0.0,3.0,96,0.00,,,0.00,0,HR-IXPWINDi_r2_v1.2.,2013-06-08 09:10:00,
2013-06-08 05:15:00,64.0,62.8,29.60,NE,52,2.0,3.0,96,0.00,,,0.00,0,HR-IXPWINDi_r2_v1.2.,2013-06-08 09:15:00,
2013-06-08 05:21:00,64.0,62.8,29.62,NE,54,1.0,2.0,96,0.00,,,0.00,0,HR-IXPWINDi_r2_v1.2.,2013-06-08 09:21:00,
2013-06-08 05:26:00,64.2,63.0,29.62,NE,54,1.0,2.0,96,0.00,,,0.00,0,HR-IXPWINDi_r2_v1.2.,2013-06-08 09:26:00,
2013-06-08 05:31:00,64.2,63.0,29.62,NE,52,0.0,3.0,96,0.00,,,0.00,0,HR-IXPWINDi_r2_v1.2.,2013-06-08 09:31:00,
2013-06-08 05:36:00,64.2,63.0,29.62,NE,55,0.0,3.0,96,0.00,,,0.00,0,HR-IXPWINDi_r2_v1.2.,2013-06-08 09:36:00,
2013-06-08 05:41:00,64.2,63.0,29.62,NE,55,1.0,2.0,96,0.00,,,0.00,0,HR-IXPWINDi_r2_v1.2.,2013-06-08 09:41:00,
2013-06-08 05:47:00,64.2,63.0,29.62,ENE,65,0.0,2.0,96,0.00,,,0.00,0,HR-IXPWINDi_r2_v1.2.,2013-06-08 09:47:00,
2013-06-08 05:52:00,64.2,63.0,29.65,ENE,72,0.0,3.0,96,0.00,,,0.00,0,HR-IXPWINDi_r2_v1.2.,2013-06-08 09:52:00,
2013-06-08 05:57:00,64.3,63.1,29.65,ENE,73,2.0,3.0,96,0.00,,,0.00,0,HR-IXPWINDi_r2_v1.2.,2013-06-08 09:57:00,
2013-06-08 06:02:00,64.3,63.1,29.65,ESE,113,3.0,4.0,96,0.00,,,0.00,0,HR-IXPWINDi_r2_v1.2.,2013-06-08 10:02:00,
2013-06-08 06:07:00,64.3,63.1,29.66,SE,124,1.0,5.0,96,0.00,,,0.00,0,HR-IXPWINDi_r2_v1.2.,2013-06-08 10:07:00,
2013-06-08 06:13:00,64.3,63.1,29.66,East,83,0.0,5.0,96,0.00,,,0.00,12,HR-IXPWINDi_r2_v1.2.,2013-06-08 10:13:00,
2013-06-08 06:18:00,64.3,63.1,29.66,East,90,2.0,4.0,96,0.00,,,0.00,11,HR-IXPWINDi_r2_v1.2.,2013-06-08 10:18:00,
2013-06-08 06:24:00,64.7,63.5,29.67,East,90,0.0,4.0,96,0.00,,,0.00,7,HR-IXPWINDi_r2_v1.2.,2013-06-08 10:24:00,
2013-06-08 06:29:00,64.7,63.5,29.67,ENE,72,0.0,3.0,96,0.00,,,0.00,14,HR-IXPWINDi_r2_v1.2.,2013-06-08 10:29:00,
2013-06-08 06:35:00,64.8,63.6,29.69,ESE,114,0.0,2.0,96,0.00,,,0.00,25,HR-IXPWINDi_r2_v1.2.,2013-06-08 10:35:00,
2013-06-08 06:40:00,65.0,63.8,29.69,ESE,116,0.0,2.0,96,0.00,,,0.00,28,HR-IXPWINDi_r2_v1.2.,2013-06-08 10:40:00,
2013-06-08 06:45:00,65.3,64.1,29.69,ESE,119,0.0,2.0,96,0.00,,,0.00,30,HR-IXPWINDi_r2_v1.2.,2013-06-08 10:45:00,
2013-06-08 06:50:00,65.3,64.1,29.70,ESE,116,0.0,2.0,96,0.00,,,0.00,26,HR-IXPWINDi_r2_v1.2.,2013-06-08 10:50:00,
2013-06-08 06:55:00,65.3,64.1,29.70,NNW,340,0.0,2.0,96,0.00,,,0.00,32,HR-IXPWINDi_r2_v1.2.,2013-06-08 10:55:00,
2013-06-08 07:01:00,65.5,64.3,29.70,NNW,340,0.0,2.0,96,0.00,,,0.00,55,HR-IXPWINDi_r2_v1.2.,2013-06-08 11:01:00,
2013-06-08 07:06:00,65.8,64.6,29.71,SSE,168,2.0,3.0,96,0.00,,,0.00,40,HR-IXPWINDi_r2_v1.2.,2013-06-08 11:06:00,
2013-06-08 07:12:00,66.1,64.9,29.71,South,186,1.0,3.0,96,0.00,,,0.00,30,HR-IXPWINDi_r2_v1.2.,2013-06-08 11:12:00,
2013-06-08 07:17:00,66.0,64.8,29.71,South,185,0.0,2.0,96,0.00,,,0.00,26,HR-IXPWINDi_r2_v1.2.,2013-06-08 11:17:00,
2013-06-08 07:22:00,66.3,65.1,29.72,South,184,2.0,3.0,96,0.00,,,0.00,49,HR-IXPWINDi_r2_v1.2.,2013-06-08 11:22:00,
2013-06-08 07:27:00,66.4,65.2,29.72,South,182,1.0,3.0,96,0.00,,,0.00,48,HR-IXPWINDi_r2_v1.2.,2013-06-08 11:27:00,
2013-06-08 07:32:00,66.8,65.6,29.72,South,184,1.0,3.0,96,0.00,,,0.00,109,HR-IXPWINDi_r2_v1.2.,2013-06-08 11:32:00,
2013-06-08 07:37:00,66.8,65.6,29.73,South,184,0.0,3.0,96,0.00,,,0.00,53,HR-IXPWINDi_r2_v1.2.,2013-06-08 11:37:00,
2013-06-08 07:42:00,66.9,65.7,29.73,South,184,0.0,3.0,96,0.00,,,0.00,42,HR-IXPWINDi_r2_v1.2.,2013-06-08 11:42:00,
2013-06-08 07:47:00,66.8,65.6,29.73,SSE,155,1.0,3.0,96,0.00,,,0.00,26,HR-IXPWINDi_r2_v1.2.,2013-06-08 11:47:00,
2013-06-08 07:52:00,66.8,65.6,29.73,SSE,155,0.0,3.0,96,0.00,,,0.00,46,HR-IXPWINDi_r2_v1.2.,2013-06-08 11:52:00,
2013-06-08 07:57:00,67.1,65.9,29.73,ESE,121,1.0,3.0,96,0.00,,,0.00,53,HR-IXPWINDi_r2_v1.2.,2013-06-08 11:57:00,
2013-06-08 08:02:00,67.3,66.1,29.73,ESE,120,1.0,3.0,96,0.00,,,0.00,93,HR-IXPWINDi_r2_v1.2.,2013-06-08 12:02:00,
2013-06-08 08:08:00,67.4,66.2,29.74,ESE,113,2.0,6.0,96,0.00,,,0.00,90,HR-IXPWINDi_r2_v1.2.,2013-06-08 12:08:00,
2013-06-08 08:14:00,67.6,66.4,29.74,ESE,112,0.0,6.0,96,0.00,,,0.00,55,HR-IXPWINDi_r2_v1.2.,2013-06-08 12:14:00,
2013-06-08 08:19:00,67.8,66.6,29.74,ESE,112,0.0,3.0,96,0.00,,,0.00,93,HR-IXPWINDi_r2_v1.2.,2013-06-08 12:19:00,
2013-06-08 08:24:00,67.9,66.7,29.75,SE,124,1.0,3.0,96,0.00,,,0.00,120,HR-IXPWINDi_r2_v1.2.,2013-06-08 12:24:00,
2013-06-08 08:29:00,68.1,66.9,29.75,ESE,119,0.0,3.0,96,0.00,,,0.00,99,HR-IXPWINDi_r2_v1.2.,2013-06-08 12:29:00,
2013-06-08 08:34:00,68.3,66.7,29.75,ESE,119,0.0,3.0,95,0.00,,,0.00,97,HR-IXPWINDi_r2_v1.2.,2013-06-08 12:34:00,
2013-06-08 08:40:00,68.3,66.7,29.77,ESE,117,1.0,3.0,95,0.00,,,0.00,130,HR-IXPWINDi_r2_v1.2.,2013-06-08 12:40:00,
2013-06-08 08:45:00,68.4,66.8,29.77,ESE,119,0.0,2.0,95,0.00,,,0.00,135,HR-IXPWINDi_r2_v1.2.,2013-06-08 12:45:00,
2013-06-08 08:50:00,68.6,67.0,29.77,ESE,119,0.0,2.0,95,0.00,,,0.00,128,HR-IXPWINDi_r2_v1.2.,2013-06-08 12:50:00,
2013-06-08 08:55:00,68.8,67.2,29.77,ESE,117,0.0,1.0,95,0.00,,,0.00,134,HR-IXPWINDi_r2_v1.2.,2013-06-08 12:55:00,
2013-06-08 09:00:00,68.9,67.3,29.77,ESE,119,0.0,2.0,95,0.00,,,0.00,121,HR-IXPWINDi_r2_v1.2.,2013-06-08 13:00:00,
2013-06-08 09:05:00,68.9,67.3,29.79,ESE,119,0.0,2.0,95,0.00,,,0.00,134,HR-IXPWINDi_r2_v1.2.,2013-06-08 13:05:00,
2013-06-08 09:11:00,69.1,67.5,29.79,ESE,119,0.0,0.0,95,0.00,,,0.00,153,HR-IXPWINDi_r2_v1.2.,2013-06-08 13:11:00,
2013-06-08 09:16:00,69.1,67.2,29.79,ESE,117,0.0,2.0,94,0.00,,,0.00,160,HR-IXPWINDi_r2_v1.2.,2013-06-08 13:16:00,
2013-06-08 09:21:00,69.1,67.2,29.78,ESE,117,0.0,2.0,94,0.00,,,0.00,174,HR-IXPWINDi_r2_v1.2.,2013-06-08 13:21:00,
2013-06-08 09:26:00,69.4,67.5,29.78,ESE,119,0.0,2.0,94,0.00,,,0.00,183,HR-IXPWINDi_r2_v1.2.,2013-06-08 13:26:00,
2013-06-08 09:32:00,69.6,67.7,29.78,ESE,117,0.0,2.0,94,0.00,,,0.00,197,HR-IXPWINDi_r2_v1.2.,2013-06-08 13:32:00,
2013-06-08 09:37:00,70.1,68.2,29.79,ESE,119,0.0,3.0,94,0.00,,,0.00,169,HR-IXPWINDi_r2_v1.2.,2013-06-08 13:37:00,
2013-06-08 09:42:00,69.9,67.7,29.79,ESE,119,1.0,3.0,93,0.00,,,0.00,157,HR-IXPWINDi_r2_v1.2.,2013-06-08 13:42:00,
2013-06-08 09:47:00,69.9,67.4,29.79,ESE,117,0.0,3.0,92,0.00,,,0.00,153,HR-IXPWINDi_r2_v1.2.,2013-06-08 13:47:00,
2013-06-08 09:52:00,69.9,67.4,29.79,ESE,120,0.0,2.0,92,0.00,,,0.00,162,HR-IXPWINDi_r2_v1.2.,2013-06-08 13:52:00,
2013-06-08 09:57:00,70.1,67.6,29.79,ESE,119,0.0,2.0,92,0.00,,,0.00,202,HR-IXPWINDi_r2_v1.2.,2013-06-08 13:57:00,
2013-06-08 10:02:00,70.3,67.5,29.79,ESE,119,0.0,3.0,91,0.00,,,0.00,190,HR-IXPWINDi_r2_v1.2.,2013-06-08 14:02:00,
2013-06-08 10:08:00,70.3,67.5,29.80,ESE,119,0.0,3.0,91,0.00,,,0.00,218,HR-IXPWINDi_r2_v1.2.,2013-06-08 14:08:00,
2013-06-08 10:13:00,70.3,67.5,29.80,ESE,119,0.0,2.0,91,0.00,,,0.00,220,HR-IXPWINDi_r2_v1.2.,2013-06-08 14:13:00,
2013-06-08 10:18:00,70.4,67.6,29.80,ESE,117,0.0,1.0,91,0.00,,,0.00,222,HR-IXPWINDi_r2_v1.2.,2013-06-08 14:18:00,
2013-06-08 10:23:00,70.4,67.3,29.80,ESE,117,2.0,2.0,90,0.00,,,0.00,227,HR-IXPWINDi_r2_v1.2.,2013-06-08 14:23:00,
2013-06-08 10:28:00,70.3,66.8,29.80,ESE,117,0.0,3.0,89,0.00,,,0.00,178,HR-IXPWINDi_r2_v1.2.,2013-06-08 14:28:00,
2013-06-08 10:33:00,70.1,66.6,29.80,NE,47,0.0,3.0,89,0.00,,,0.00,179,HR-IXPWINDi_r2_v1.2.,2013-06-08 14:33:00,
2013-06-08 10:39:00,69.9,66.1,29.81,NE,55,0.0,3.0,88,0.00,,,0.00,192,HR-IXPWINDi_r2_v1.2.,2013-06-08 14:39:00,
2013-06-08 10:44:00,70.1,66.3,29.81,NE,34,1.0,3.0,88,0.00,,,0.00,134,HR-IXPWINDi_r2_v1.2.,2013-06-08 14:44:00,
2013-06-08 10:49:00,69.9,65.5,29.81,East,83,1.0,5.0,86,0.00,,,0.00,181,HR-IXPWINDi_r2_v1.2.,2013-06-08 14:49:00,
2013-06-08 10:54:00,69.9,64.8,29.82,ESE,104,0.0,5.0,84,0.00,,,0.00,185,HR-IXPWINDi_r2_v1.2.,2013-06-08 14:54:00,
2013-06-08 10:59:00,70.1,64.6,29.82,ESE,107,0.0,5.0,83,0.00,,,0.00,260,HR-IXPWINDi_r2_v1.2.,2013-06-08 14:59:00,
2013-06-08 11:04:00,70.3,64.5,29.82,NNE,13,0.0,6.0,82,0.00,,,0.00,227,HR-IXPWINDi_r2_v1.2.,2013-06-08 15:04:00,
2013-06-08 11:09:00,70.6,65.1,29.83,NNE,13,0.0,6.0,83,0.00,,,0.00,143,HR-IXPWINDi_r2_v1.2.,2013-06-08 15:09:00,
2013-06-08 11:14:00,70.4,64.6,29.83,East,79,1.0,5.0,82,0.00,,,0.00,139,HR-IXPWINDi_r2_v1.2.,2013-06-08 15:14:00,
2013-06-08 11:19:00,70.4,64.6,29.83,ENE,78,0.0,5.0,82,0.00,,,0.00,111,HR-IXPWINDi_r2_v1.2.,2013-06-08 15:19:00,
2013-06-08 11:24:00,70.6,64.4,29.83,North,359,0.0,3.0,81,0.00,,,0.00,148,HR-IXPWINDi_r2_v1.2.,2013-06-08 15:24:00,
2013-06-08 11:29:00,70.9,64.7,29.83,East,82,3.0,4.0,81,0.00,,,0.00,139,HR-IXPWINDi_r2_v1.2.,2013-06-08 15:29:00,
2013-06-08 11:35:00,70.9,64.0,29.83,East,82,0.0,4.0,79,0.00,,,0.00,155,HR-IXPWINDi_r2_v1.2.,2013-06-08 15:35:00,
2013-06-08 11:40:00,71.5,64.9,29.83,NE,41,1.0,4.0,80,0.00,,,0.00,194,HR-IXPWINDi_r2_v1.2.,2013-06-08 15:40:00,
2013-06-08 11:45:00,71.6,64.3,29.83,NE,41,0.0,3.0,78,0.00,,,0.00,216,HR-IXPWINDi_r2_v1.2.,2013-06-08 15:45:00,
2013-06-08 11:50:00,72.1,64.4,29.84,NE,41,0.0,3.0,77,0.00,,,0.00,313,HR-IXPWINDi_r2_v1.2.,2013-06-08 15:50:00,
2013-06-08 11:55:00,72.3,63.9,29.84,SSW,193,1.0,5.0,75,0.00,,,0.00,313,HR-IXPWINDi_r2_v1.2.,2013-06-08 15:55:00,
2013-06-08 12:00:00,72.5,63.7,29.84,SE,145,2.0,5.0,74,0.00,,,0.00,361,HR-IXPWINDi_r2_v1.2.,2013-06-08 16:00:00,
2013-06-08 12:05:00,73.0,64.5,29.84,SE,145,0.0,3.0,75,0.00,,,0.00,361,HR-IXPWINDi_r2_v1.2.,2013-06-08 16:05:00,
2013-06-08 12:10:00,72.8,63.6,29.84,ESE,106,0.0,6.0,73,0.00,,,0.00,246,HR-IXPWINDi_r2_v1.2.,2013-06-08 16:10:00,
2013-06-08 12:15:00,73.0,64.2,29.84,East,92,1.0,6.0,74,0.00,,,0.00,255,HR-IXPWINDi_r2_v1.2.,2013-06-08 16:15:00,
2013-06-08 12:20:00,73.3,64.1,29.84,SSE,161,1.0,3.0,73,0.00,,,0.00,503,HR-IXPWINDi_r2_v1.2.,2013-06-08 16:20:00,
2013-06-08 12:25:00,73.7,64.1,29.84,NNE,30,1.0,5.0,72,0.00,,,0.00,503,HR-IXPWINDi_r2_v1.2.,2013-06-08 16:25:00,
2013-06-08 12:30:00,73.2,63.6,29.84,NE,44,1.0,5.0,72,0.00,,,0.00,322,HR-IXPWINDi_r2_v1.2.,2013-06-08 16:30:00,
2013-06-08 12:36:00,73.2,63.6,29.85,NE,44,0.0,3.0,72,0.00,,,0.00,516,HR-IXPWINDi_r2_v1.2.,2013-06-08 16:36:00,
2013-06-08 12:41:00,73.7,64.1,29.85,ENE,61,0.0,5.0,72,0.00,,,0.00,697,HR-IXPWINDi_r2_v1.2.,2013-06-08 16:41:00,
2013-06-08 12:46:00,74.2,64.5,29.85,ENE,61,0.0,5.0,72,0.00,,,0.00,296,HR-IXPWINDi_r2_v1.2.,2013-06-08 16:46:00,
2013-06-08 12:51:00,74.6,64.1,29.84,ENE,61,0.0,2.0,70,0.00,,,0.00,320,HR-IXPWINDi_r2_v1.2.,2013-06-08 16:51:00,
2013-06-08 12:57:00,74.4,63.9,29.84,NNE,17,0.0,3.0,70,0.00,,,0.00,338,HR-IXPWINDi_r2_v1.2.,2013-06-08 16:57:00,
2013-06-08 13:02:00,74.6,64.9,29.84,NNW,344,0.0,3.0,72,0.00,,,0.00,280,HR-IXPWINDi_r2_v1.2.,2013-06-08 17:02:00,
2013-06-08 13:07:00,74.7,64.2,29.85,NNW,344,0.0,3.0,70,0.00,,,0.00,1015,HR-IXPWINDi_r2_v1.2.,2013-06-08 17:07:00,
2013-06-08 13:12:00,74.9,63.6,29.85,East,80,2.0,4.0,68,0.00,,,0.00,1091,HR-IXPWINDi_r2_v1.2.,2013-06-08 17:12:00,
2013-06-08 13:17:00,74.9,63.1,29.85,ESE,102,0.0,4.0,67,0.00,,,0.00,216,HR-IXPWINDi_r2_v1.2.,2013-06-08 17:17:00,
2013-06-08 13:23:00,74.9,64.4,29.84,ESE,102,0.0,4.0,70,0.00,,,0.00,199,HR-IXPWINDi_r2_v1.2.,2013-06-08 17:23:00,
2013-06-08 13:29:00,74.7,63.8,29.84,ESE,102,2.0,3.0,69,0.00,,,0.00,248,HR-IXPWINDi_r2_v1.2.,2013-06-08 17:29:00,
2013-06-08 13:34:00,74.9,63.6,29.84,ESE,102,0.0,3.0,68,0.00,,,0.00,260,HR-IXPWINDi_r2_v1.2.,2013-06-08 17:34:00,
2013-06-08 13:39:00,75.1,64.6,29.84,East,79,1.0,3.0,70,0.00,,,0.00,382,HR-IXPWINDi_r2_v1.2.,2013-06-08 17:39:00,
2013-06-08 13:44:00,74.9,62.7,29.84,East,79,3.0,4.0,66,0.00,,,0.00,171,HR-IXPWINDi_r2_v1.2.,2013-06-08 17:44:00,
2013-06-08 13:49:00,74.9,63.6,29.84,East,100,1.0,5.0,68,0.00,,,0.00,1036,HR-IXPWINDi_r2_v1.2.,2013-06-08 17:49:00,
2013-06-08 13:54:00,75.1,62.9,29.85,ESE,116,1.0,5.0,66,0.00,,,0.00,975,HR-IXPWINDi_r2_v1.2.,2013-06-08 17:54:00,
2013-06-08 13:59:00,75.4,62.8,29.85,ESE,113,2.0,4.0,65,0.00,,,0.00,957,HR-IXPWINDi_r2_v1.2.,2013-06-08 17:59:00,
2013-06-08 14:05:00,75.8,62.7,29.85,ENE,61,1.0,4.0,64,0.00,,,0.00,924,HR-IXPWINDi_r2_v1.2.,2013-06-08 18:05:00,
2013-06-08 14:10:00,76.0,62.9,29.84,SSE,167,0.0,3.0,64,0.00,,,0.00,143,HR-IXPWINDi_r2_v1.2.,2013-06-08 18:10:00,
2013-06-08 14:15:00,75.8,62.7,29.84,South,172,3.0,3.0,64,0.00,,,0.00,132,HR-IXPWINDi_r2_v1.2.,2013-06-08 18:15:00,
2013-06-08 14:20:00,75.8,62.3,29.85,South,171,0.0,3.0,63,0.00,,,0.00,845,HR-IXPWINDi_r2_v1.2.,2013-06-08 18:20:00,
2013-06-08 14:25:00,75.8,62.3,29.85,SSE,168,2.0,3.0,63,0.00,,,0.00,845,HR-IXPWINDi_r2_v1.2.,2013-06-08 18:25:00,
2013-06-08 14:30:00,75.4,61.9,29.85,SSE,168,1.0,3.0,63,0.00,,,0.00,227,HR-IXPWINDi_r2_v1.2.,2013-06-08 18:30:00,
2013-06-08 14:36:00,75.3,63.1,29.85,SSE,168,1.0,3.0,66,0.00,,,0.00,315,HR-IXPWINDi_r2_v1.2.,2013-06-08 18:36:00,
2013-06-08 14:41:00,75.1,62.0,29.85,SSE,168,0.0,2.0,64,0.00,,,0.00,241,HR-IXPWINDi_r2_v1.2.,2013-06-08 18:41:00,
2013-06-08 14:46:00,75.1,61.6,29.85,SSE,167,2.0,5.0,63,0.00,,,0.00,282,HR-IXPWINDi_r2_v1.2.,2013-06-08 18:46:00,
2013-06-08 14:51:00,74.9,61.4,29.86,SSE,165,2.0,5.0,63,0.00,,,0.00,213,HR-IXPWINDi_r2_v1.2.,2013-06-08 18:51:00,
2013-06-08 14:56:00,74.7,62.1,29.86,SSE,167,0.0,3.0,65,0.00,,,0.00,230,HR-IXPWINDi_r2_v1.2.,2013-06-08 18:56:00,
2013-06-08 15:01:00,74.6,62.0,29.86,SSE,165,1.0,3.0,65,0.00,,,0.00,181,HR-IXPWINDi_r2_v1.2.,2013-06-08 19:01:00,
2013-06-08 15:07:00,74.4,62.2,29.85,SSE,165,0.0,3.0,66,0.00,,,0.00,179,HR-IXPWINDi_r2_v1.2.,2013-06-08 19:07:00,
2013-06-08 15:12:00,74.4,62.7,29.85,SSE,157,2.0,3.0,67,0.00,,,0.00,176,HR-IXPWINDi_r2_v1.2.,2013-06-08 19:12:00,
2013-06-08 15:17:00,74.0,61.4,29.85,SSE,157,0.0,3.0,65,0.00,,,0.00,188,HR-IXPWINDi_r2_v1.2.,2013-06-08 19:17:00,
2013-06-08 15:22:00,74.0,61.9,29.85,SSE,157,0.0,3.0,66,0.00,,,0.00,151,HR-IXPWINDi_r2_v1.2.,2013-06-08 19:22:00,
2013-06-08 15:27:00,73.9,62.2,29.85,SSE,157,0.0,0.0,67,0.00,,,0.00,164,HR-IXPWINDi_r2_v1.2.,2013-06-08 19:27:00,
2013-06-08 15:32:00,73.9,63.4,29.85,SSE,157,0.0,0.0,70,0.00,,,0.00,194,HR-IXPWINDi_r2_v1.2.,2013-06-08 19:32:00,
2013-06-08 15:37:00,73.9,62.2,29.85,SSE,154,0.0,0.0,67,0.00,,,0.00,262,HR-IXPWINDi_r2_v1.2.,2013-06-08 19:37:00,
2013-06-08 15:43:00,74.2,64.1,29.85,SSE,154,0.0,0.0,71,0.00,,,0.00,276,HR-IXPWINDi_r2_v1.2.,2013-06-08 19:43:00,
2013-06-08 15:48:00,74.2,62.1,29.85,SSE,154,0.0,3.0,66,0.00,,,0.00,164,HR-IXPWINDi_r2_v1.2.,2013-06-08 19:48:00,
2013-06-08 15:53:00,74.2,61.6,29.86,SSE,154,0.0,3.0,65,0.00,,,0.00,134,HR-IXPWINDi_r2_v1.2.,2013-06-08 19:53:00,
2013-06-08 15:58:00,74.2,61.6,29.86,SSE,154,0.0,1.0,65,0.00,,,0.00,130,HR-IXPWINDi_r2_v1.2.,2013-06-08 19:58:00,
2013-06-08 16:03:00,74.0,62.7,29.86,SSE,154,0.0,0.0,68,0.00,,,0.00,79,HR-IXPWINDi_r2_v1.2.,2013-06-08 20:03:00,
2013-06-08 16:09:00,73.9,63.4,29.86,SSE,154,0.0,0.0,70,0.00,,,0.00,53,HR-IXPWINDi_r2_v1.2.,2013-06-08 20:09:00,
2013-06-08 16:14:00,73.5,62.6,29.86,SSE,154,0.0,0.0,69,0.00,,,0.00,67,HR-IXPWINDi_r2_v1.2.,2013-06-08 20:14:00,
2013-06-08 16:19:00,73.3,63.3,29.86,SSE,154,0.0,0.0,71,0.00,,,0.00,88,HR-IXPWINDi_r2_v1.2.,2013-06-08 20:19:00,
2013-06-08 16:24:00,73.3,63.7,29.86,SSE,154,0.0,0.0,72,0.00,,,0.00,248,HR-IXPWINDi_r2_v1.2.,2013-06-08 20:24:00,
2013-06-08 16:29:00,73.3,63.3,29.86,SSE,154,0.0,0.0,71,0.00,,,0.00,185,HR-IXPWINDi_r2_v1.2.,2013-06-08 20:29:00,
2013-06-08 16:34:00,73.5,61.8,29.86,SSE,154,1.0,4.0,67,0.00,,,0.00,146,HR-IXPWINDi_r2_v1.2.,2013-06-08 20:34:00,
2013-06-08 16:40:00,73.7,62.4,29.87,SSE,155,1.0,4.0,68,0.00,,,0.00,135,HR-IXPWINDi_r2_v1.2.,2013-06-08 20:40:00,
2013-06-08 16:45:00,73.7,62.8,29.87,SSE,155,2.0,3.0,69,0.00,,,0.00,97,HR-IXPWINDi_r2_v1.2.,2013-06-08 20:45:00,
2013-06-08 16:50:00,73.5,61.8,29.88,SSE,155,0.0,3.0,67,0.00,,,0.00,100,HR-IXPWINDi_r2_v1.2.,2013-06-08 20:50:00,
2013-06-08 16:55:00,73.2,61.9,29.88,SE,145,0.0,3.0,68,0.00,,,0.00,111,HR-IXPWINDi_r2_v1.2.,2013-06-08 20:55:00,
2013-06-08 17:00:00,73.0,62.2,29.88,SE,145,0.0,2.0,69,0.00,,,0.00,109,HR-IXPWINDi_r2_v1.2.,2013-06-08 21:00:00,
2013-06-08 17:06:00,72.8,62.0,29.88,SE,144,0.0,2.0,69,0.00,,,0.00,102,HR-IXPWINDi_r2_v1.2.,2013-06-08 21:06:00,
2013-06-08 17:11:00,72.8,62.4,29.88,SE,144,0.0,2.0,70,0.00,,,0.00,127,HR-IXPWINDi_r2_v1.2.,2013-06-08 21:11:00,
2013-06-08 17:16:00,72.8,62.4,29.88,SE,144,0.0,0.0,70,0.00,,,0.00,97,HR-IXPWINDi_r2_v1.2.,2013-06-08 21:16:00,
2013-06-08 17:21:00,72.8,62.8,29.89,SE,145,0.0,0.0,71,0.00,,,0.00,65,HR-IXPWINDi_r2_v1.2.,2013-06-08 21:21:00,
2013-06-08 17:27:00,72.7,62.3,29.89,SE,145,0.0,2.0,70,0.00,,,0.00,91,HR-IXPWINDi_r2_v1.2.,2013-06-08 21:27:00,
2013-06-08 17:32:00,72.7,62.3,29.89,SE,145,1.0,2.0,70,0.00,,,0.00,107,HR-IXPWINDi_r2_v1.2.,2013-06-08 21:32:00,
2013-06-08 17:37:00,72.8,62.0,29.89,SE,145,0.0,2.0,69,0.00,,,0.00,150,HR-IXPWINDi_r2_v1.2.,2013-06-08 21:37:00,
2013-06-08 17:43:00,73.0,63.0,29.89,SE,144,0.0,2.0,71,0.00,,,0.00,155,HR-IXPWINDi_r2_v1.2.,2013-06-08 21:43:00,
2013-06-08 17:48:00,73.0,63.0,29.89,SE,144,0.0,0.0,71,0.00,,,0.00,113,HR-IXPWINDi_r2_v1.2.,2013-06-08 21:48:00,
2013-06-08 17:53:00,73.0,62.2,29.89,SE,144,0.0,5.0,69,0.00,,,0.00,106,HR-IXPWINDi_r2_v1.2.,2013-06-08 21:53:00,
2013-06-08 17:58:00,72.8,62.0,29.89,SE,144,0.0,5.0,69,0.00,,,0.00,113,HR-IXPWINDi_r2_v1.2.,2013-06-08 21:58:00,
2013-06-08 18:03:00,72.7,61.1,29.89,SE,144,0.0,2.0,67,0.00,,,0.00,74,HR-IXPWINDi_r2_v1.2.,2013-06-08 22:03:00,
2013-06-08 18:08:00,72.7,61.5,29.90,East,96,0.0,3.0,68,0.00,,,0.00,99,HR-IXPWINDi_r2_v1.2.,2013-06-08 22:08:00,
2013-06-08 18:13:00,72.5,61.3,29.90,East,96,1.0,3.0,68,0.00,,,0.00,100,HR-IXPWINDi_r2_v1.2.,2013-06-08 22:13:00,
2013-06-08 18:18:00,72.5,60.9,29.90,SE,136,1.0,3.0,67,0.00,,,0.00,81,HR-IXPWINDi_r2_v1.2.,2013-06-08 22:18:00,
2013-06-08 18:24:00,72.5,61.7,29.90,SE,136,0.0,3.0,69,0.00,,,0.00,91,HR-IXPWINDi_r2_v1.2.,2013-06-08 22:24:00,
2013-06-08 18:29:00,72.3,60.2,29.90,SE,138,0.0,3.0,66,0.00,,,0.00,83,HR-IXPWINDi_r2_v1.2.,2013-06-08 22:29:00,
2013-06-08 18:34:00,72.3,60.2,29.90,SE,128,0.0,2.0,66,0.00,,,0.00,83,HR-IXPWINDi_r2_v1.2.,2013-06-08 22:34:00,
2013-06-08 18:39:00,72.3,60.7,29.91,SE,128,0.0,2.0,67,0.00,,,0.00,77,HR-IXPWINDi_r2_v1.2.,2013-06-08 22:39:00,
2013-06-08 18:44:00,72.3,60.7,29.91,SE,128,0.0,2.0,67,0.00,,,0.00,51,HR-IXPWINDi_r2_v1.2.,2013-06-08 22:44:00,
2013-06-08 18:49:00,72.3,60.7,29.91,SE,128,0.0,2.0,67,0.00,,,0.00,25,HR-IXPWINDi_r2_v1.2.,2013-06-08 22:49:00,
2013-06-08 18:54:00,72.1,60.5,29.92,ESE,120,0.0,2.0,67,0.00,,,0.00,18,HR-IXPWINDi_r2_v1.2.,2013-06-08 22:54:00,
2013-06-08 18:59:00,71.8,60.6,29.92,ESE,114,1.0,2.0,68,0.00,,,0.00,12,HR-IXPWINDi_r2_v1.2.,2013-06-08 22:59:00,
2013-06-08 19:04:00,71.6,60.8,29.92,ESE,120,1.0,2.0,69,0.00,,,0.00,11,HR-IXPWINDi_r2_v1.2.,2013-06-08 23:04:00,
2013-06-08 19:10:00,71.3,61.4,29.92,ESE,120,0.0,2.0,71,0.00,,,0.00,11,HR-IXPWINDi_r2_v1.2.,2013-06-08 23:10:00,
2013-06-08 19:15:00,70.9,60.6,29.92,ESE,120,0.0,2.0,70,0.00,,,0.00,9,HR-IXPWINDi_r2_v1.2.,2013-06-08 23:15:00,
2013-06-08 19:20:00,70.8,60.9,29.92,ESE,120,0.0,1.0,71,0.00,,,0.00,9,HR-IXPWINDi_r2_v1.2.,2013-06-08 23:20:00,
2013-06-08 19:25:00,70.4,60.9,29.92,ESE,120,0.0,1.0,72,0.00,,,0.00,7,HR-IXPWINDi_r2_v1.2.,2013-06-08 23:25:00,
2013-06-08 19:30:00,70.3,60.8,29.92,ESE,120,0.0,0.0,72,0.00,,,0.00,7,HR-IXPWINDi_r2_v1.2.,2013-06-08 23:30:00,
2013-06-08 19:36:00,69.9,60.4,29.93,ESE,120,0.0,0.0,72,0.00,,,0.00,7,HR-IXPWINDi_r2_v1.2.,2013-06-08 23:36:00,
2013-06-08 19:41:00,69.8,60.3,29.93,ESE,120,0.0,0.0,72,0.00,,,0.00,5,HR-IXPWINDi_r2_v1.2.,2013-06-08 23:41:00,
2013-06-08 19:47:00,69.6,60.1,29.93,ESE,120,0.0,0.0,72,0.00,,,0.00,5,HR-IXPWINDi_r2_v1.2.,2013-06-08 23:47:00,
2013-06-08 19:52:00,69.4,59.9,29.94,ESE,120,0.0,0.0,72,0.00,,,0.00,5,HR-IXPWINDi_r2_v1.2.,2013-06-08 23:52:00,
2013-06-08 19:58:00,69.3,60.2,29.94,ESE,120,0.0,0.0,73,0.00,,,0.00,0,HR-IXPWINDi_r2_v1.2.,2013-06-08 23:58:00,
2013-06-08 20:03:00,69.1,60.4,29.94,ESE,120,0.0,0.0,74,0.00,,,0.00,0,HR-IXPWINDi_r2_v1.2.,2013-06-09 00:03:00,
2013-06-08 20:09:00,68.9,60.2,29.93,ESE,120,0.0,0.0,74,0.00,,,0.00,0,HR-IXPWINDi_r2_v1.2.,2013-06-09 00:09:00,
2013-06-08 20:14:00,68.6,59.9,29.93,ESE,120,0.0,0.0,74,0.00,,,0.00,0,HR-IXPWINDi_r2_v1.2.,2013-06-09 00:14:00,
2013-06-08 20:19:00,68.3,60.0,29.93,ESE,120,0.0,0.0,75,0.00,,,0.00,0,HR-IXPWINDi_r2_v1.2.,2013-06-09 00:19:00,
2013-06-08 20:26:00,67.8,59.9,29.93,ESE,120,0.0,0.0,76,0.00,,,0.00,0,HR-IXPWINDi_r2_v1.2.,2013-06-09 00:26:00,
2013-06-08 20:31:00,67.4,59.9,29.93,ESE,120,0.0,0.0,77,0.00,,,0.00,0,HR-IXPWINDi_r2_v1.2.,2013-06-09 00:31:00,
2013-06-08 20:36:00,67.1,59.9,29.94,ESE,120,0.0,0.0,78,0.00,,,0.00,0,HR-IXPWINDi_r2_v1.2.,2013-06-09 00:36:00,
2013-06-08 20:41:00,66.8,60.0,29.94,ESE,120,0.0,0.0,79,0.00,,,0.00,0,HR-IXPWINDi_r2_v1.2.,2013-06-09 00:41:00,
2013-06-08 20:47:00,66.4,59.6,29.94,ESE,120,0.0,0.0,79,0.00,,,0.00,0,HR-IXPWINDi_r2_v1.2.,2013-06-09 00:47:00,
2013-06-08 20:52:00,66.1,59.7,29.94,ESE,120,0.0,0.0,80,0.00,,,0.00,0,HR-IXPWINDi_r2_v1.2.,2013-06-09 00:52:00,
2013-06-08 20:57:00,65.8,59.7,29.94,ESE,120,0.0,0.0,81,0.00,,,0.00,0,HR-IXPWINDi_r2_v1.2.,2013-06-09 00:57:00,
2013-06-08 21:02:00,65.6,59.9,29.94,ESE,120,0.0,0.0,82,0.00,,,0.00,0,HR-IXPWINDi_r2_v1.2.,2013-06-09 01:02:00,
2013-06-08 21:08:00,65.5,59.8,29.95,ESE,120,0.0,0.0,82,0.00,,,0.00,0,HR-IXPWINDi_r2_v1.2.,2013-06-09 01:08:00,
2013-06-08 21:13:00,65.2,59.8,29.95,ESE,120,0.0,0.0,83,0.00,,,0.00,0,HR-IXPWINDi_r2_v1.2.,2013-06-09 01:13:00,
2013-06-08 21:18:00,64.8,59.5,29.95,ESE,120,0.0,0.0,83,0.00,,,0.00,0,HR-IXPWINDi_r2_v1.2.,2013-06-09 01:18:00,
2013-06-08 21:23:00,64.7,59.7,29.96,ESE,120,0.0,0.0,84,0.00,,,0.00,0,HR-IXPWINDi_r2_v1.2.,2013-06-09 01:23:00,
2013-06-08 21:28:00,64.7,60.0,29.96,ESE,120,0.0,0.0,85,0.00,,,0.00,0,HR-IXPWINDi_r2_v1.2.,2013-06-09 01:28:00,
2013-06-08 21:33:00,64.5,60.2,29.96,ESE,120,0.0,0.0,86,0.00,,,0.00,0,HR-IXPWINDi_r2_v1.2.,2013-06-09 01:33:00,
2013-06-08 21:39:00,64.2,59.9,29.97,ESE,120,0.0,0.0,86,0.00,,,0.00,0,HR-IXPWINDi_r2_v1.2.,2013-06-09 01:39:00,
2013-06-08 21:44:00,64.0,59.7,29.97,ESE,120,0.0,0.0,86,0.00,,,0.00,0,HR-IXPWINDi_r2_v1.2.,2013-06-09 01:44:00,
2013-06-08 21:49:00,63.9,59.6,29.97,ESE,120,0.0,0.0,86,0.00,,,0.00,0,HR-IXPWINDi_r2_v1.2.,2013-06-09 01:49:00,
2013-06-08 21:54:00,63.7,59.7,29.97,ESE,120,0.0,0.0,87,0.00,,,0.00,0,HR-IXPWINDi_r2_v1.2.,2013-06-09 01:54:00,
2013-06-08 21:59:00,63.5,59.5,29.97,ESE,120,0.0,0.0,87,0.00,,,0.00,0,HR-IXPWINDi_r2_v1.2.,2013-06-09 01:59:00,
2013-06-08 22:04:00,63.4,59.4,29.97,ESE,120,0.0,0.0,87,0.00,,,0.00,0,HR-IXPWINDi_r2_v1.2.,2013-06-09 02:04:00,
2013-06-08 22:09:00,63.4,59.7,29.98,ESE,120,0.0,0.0,88,0.00,,,0.00,0,HR-IXPWINDi_r2_v1.2.,2013-06-09 02:09:00,
2013-06-08 22:14:00,63.2,59.5,29.98,ESE,120,0.0,0.0,88,0.00,,,0.00,0,HR-IXPWINDi_r2_v1.2.,2013-06-09 02:14:00,
2013-06-08 22:20:00,63.1,59.4,29.99,ESE,120,0.0,0.0,88,0.00,,,0.00,0,HR-IXPWINDi_r2_v1.2.,2013-06-09 02:20:00,
2013-06-08 22:25:00,63.1,59.7,29.99,ESE,120,0.0,0.0,89,0.00,,,0.00,0,HR-IXPWINDi_r2_v1.2.,2013-06-09 02:25:00,
2013-06-08 22:30:00,62.9,59.5,29.99,ESE,120,0.0,0.0,89,0.00,,,0.00,0,HR-IXPWINDi_r2_v1.2.,2013-06-09 02:30:00,
2013-06-08 22:35:00,62.7,59.3,29.99,ESE,120,0.0,0.0,89,0.00,,,0.00,0,HR-IXPWINDi_r2_v1.2.,2013-06-09 02:35:00,
2013-06-08 22:40:00,62.6,59.2,29.99,ESE,120,0.0,0.0,89,0.00,,,0.00,0,HR-IXPWINDi_r2_v1.2.,2013-06-09 02:40:00,
2013-06-08 22:46:00,62.4,59.0,29.99,ESE,120,0.0,0.0,89,0.00,,,0.00,0,HR-IXPWINDi_r2_v1.2.,2013-06-09 02:46:00,
2013-06-08 22:51:00,62.3,58.9,30.00,ESE,120,0.0,0.0,89,0.00,,,0.00,0,HR-IXPWINDi_r2_v1.2.,2013-06-09 02:51:00,
2013-06-08 22:56:00,62.3,59.3,30.00,ESE,120,0.0,0.0,90,0.00,,,0.00,0,HR-IXPWINDi_r2_v1.2.,2013-06-09 02:56:00,
2013-06-08 23:01:00,62.1,59.1,30.00,ESE,120,0.0,0.0,90,0.00,,,0.00,0,HR-IXPWINDi_r2_v1.2.,2013-06-09 03:01:00,
2013-06-08 23:07:00,62.0,59.0,30.00,ESE,120,0.0,0.0,90,0.00,,,0.00,0,HR-IXPWINDi_r2_v1.2.,2013-06-09 03:07:00,
2013-06-08 23:12:00,62.0,59.0,30.00,ESE,120,0.0,0.0,90,0.00,,,0.00,0,HR-IXPWINDi_r2_v1.2.,2013-06-09 03:12:00,
2013-06-08 23:17:00,61.8,58.8,30.00,ESE,120,0.0,0.0,90,0.00,,,0.00,0,HR-IXPWINDi_r2_v1.2.,2013-06-09 03:17:00,
2013-06-08 23:22:00,61.8,58.8,30.00,ESE,120,0.0,0.0,90,0.00,,,0.00,0,HR-IXPWINDi_r2_v1.2.,2013-06-09 03:22:00,
2013-06-08 23:27:00,61.6,58.6,30.00,ESE,120,0.0,0.0,90,0.00,,,0.00,0,HR-IXPWINDi_r2_v1.2.,2013-06-09 03:27:00,
2013-06-08 23:32:00,61.8,59.1,30.00,ESE,120,0.0,0.0,91,0.00,,,0.00,0,HR-IXPWINDi_r2_v1.2.,2013-06-09 03:32:00,
2013-06-08 23:37:00,61.8,59.1,30.00,ESE,120,0.0,0.0,91,0.00,,,0.00,0,HR-IXPWINDi_r2_v1.2.,2013-06-09 03:37:00,
2013-06-08 23:43:00,61.8,59.1,30.00,ESE,120,0.0,0.0,91,0.00,,,0.00,0,HR-IXPWINDi_r2_v1.2.,2013-06-09 03:43:00,
2013-06-08 23:48:00,61.8,59.1,30.00,ESE,120,0.0,0.0,91,0.00,,,0.00,0,HR-IXPWINDi_r2_v1.2.,2013-06-09 03:48:00,
2013-06-08 23:54:00,61.6,58.9,30.00,ESE,120,0.0,0.0,91,0.00,,,0.00,0,HR-IXPWINDi_r2_v1.2.,2013-06-09 03:54:00,
2013-06-08 23:59:00,61.6,58.9,30.00,ESE,120,0.0,0.0,91,0.00,,,0.00,0,HR-IXPWINDi_r2_v1.2.,2013-06-09 03:59:00,